Year,Month,Day,Hour,Minute,Value (Times are PST for windgust in km/hr)
2008,10,04,00,00,20.90
2008,10,04,00,01,14.50
2008,10,04,00,02,14.50
2008,10,04,00,03,19.30
2008,10,04,00,04,11.30
2008,10,04,00,05,20.90
2008,10,04,00,06,14.50
2008,10,04,00,07,16.10
2008,10,04,00,08,6.40
2008,10,04,00,09,9.60
2008,10,04,00,10,16.10
2008,10,04,00,11,17.70
2008,10,04,00,12,25.70
2008,10,04,00,13,20.90
2008,10,04,00,14,33.80
2008,10,04,00,15,29.00
2008,10,04,00,16,33.80
2008,10,04,00,17,32.20
2008,10,04,00,18,12.90
2008,10,04,00,19,16.10
2008,10,04,00,20,20.90
2008,10,04,00,21,14.50
2008,10,04,00,22,17.70
2008,10,04,00,23,9.60
2008,10,04,00,24,12.90
2008,10,04,00,25,6.40
2008,10,04,00,26,8.10
2008,10,04,00,27,14.50
2008,10,04,00,28,12.90
2008,10,04,00,29,9.60
2008,10,04,00,30,9.60
2008,10,04,00,31,9.60
2008,10,04,00,32,6.40
2008,10,04,00,33,11.30
2008,10,04,00,34,8.10
2008,10,04,00,35,11.30
2008,10,04,00,36,8.10
2008,10,04,00,37,9.60
2008,10,04,00,38,8.10
2008,10,04,00,39,8.10
2008,10,04,00,40,9.60
2008,10,04,00,41,8.10
2008,10,04,00,42,16.10
2008,10,04,00,43,14.50
2008,10,04,00,44,9.60
2008,10,04,00,45,6.40
2008,10,04,00,46,4.80
2008,10,04,00,47,6.40
2008,10,04,00,48,17.70
2008,10,04,00,49,9.60
2008,10,04,00,50,9.60
2008,10,04,00,51,9.60
2008,10,04,00,52,6.40
2008,10,04,00,53,8.10
2008,10,04,00,54,9.60
2008,10,04,00,55,11.30
2008,10,04,00,56,8.10
2008,10,04,00,57,9.60
2008,10,04,00,58,11.30
2008,10,04,00,59,9.60
2008,10,04,01,00,9.60
2008,10,04,01,01,9.60
2008,10,04,01,02,9.60
2008,10,04,01,03,9.60
2008,10,04,01,04,14.50
2008,10,04,01,05,11.30
2008,10,04,01,06,8.10
2008,10,04,01,07,16.10
2008,10,04,01,08,9.60
2008,10,04,01,09,8.10
2008,10,04,01,10,8.10
2008,10,04,01,11,8.10
2008,10,04,01,12,9.60
2008,10,04,01,13,8.10
2008,10,04,01,14,8.10
2008,10,04,01,15,6.40
2008,10,04,01,16,4.80
2008,10,04,01,17,8.10
2008,10,04,01,18,6.40
2008,10,04,01,19,4.80
2008,10,04,01,20,8.10
2008,10,04,01,21,9.60
2008,10,04,01,22,9.60
2008,10,04,01,23,11.30
2008,10,04,01,24,6.40
2008,10,04,01,25,6.40
2008,10,04,01,26,8.10
2008,10,04,01,27,8.10
2008,10,04,01,28,8.10
2008,10,04,01,29,6.40
2008,10,04,01,30,9.60
2008,10,04,01,31,9.60
2008,10,04,01,32,9.60
2008,10,04,01,33,9.60
2008,10,04,01,34,6.40
2008,10,04,01,35,9.60
2008,10,04,01,36,9.60
2008,10,04,01,37,8.10
2008,10,04,01,38,6.40
2008,10,04,01,39,6.40
2008,10,04,01,40,8.10
2008,10,04,01,41,9.60
2008,10,04,01,42,9.60
2008,10,04,01,43,6.40
2008,10,04,01,44,8.10
2008,10,04,01,45,9.60
2008,10,04,01,46,6.40
2008,10,04,01,47,3.20
2008,10,04,01,48,6.40
2008,10,04,01,49,9.60
2008,10,04,01,50,6.40
2008,10,04,01,51,8.10
2008,10,04,01,52,9.60
2008,10,04,01,53,9.60
2008,10,04,01,54,11.30
2008,10,04,01,55,8.10
2008,10,04,01,56,9.60
2008,10,04,01,57,9.60
2008,10,04,01,58,8.10
2008,10,04,01,59,8.10
2008,10,04,02,00,9.60
2008,10,04,02,01,6.40
2008,10,04,02,02,8.10
2008,10,04,02,03,8.10
2008,10,04,02,04,6.40
2008,10,04,02,05,8.10
2008,10,04,02,06,6.40
2008,10,04,02,07,6.40
2008,10,04,02,08,11.30
2008,10,04,02,09,9.60
2008,10,04,02,10,16.10
2008,10,04,02,11,11.30
2008,10,04,02,12,9.60
2008,10,04,02,13,9.60
2008,10,04,02,14,11.30
2008,10,04,02,15,14.50
2008,10,04,02,16,9.60
2008,10,04,02,17,11.30
2008,10,04,02,18,14.50
2008,10,04,02,19,11.30
2008,10,04,02,20,11.30
2008,10,04,02,21,8.10
2008,10,04,02,22,19.30
2008,10,04,02,23,20.90
2008,10,04,02,24,9.60
2008,10,04,02,25,8.10
2008,10,04,02,26,6.40
2008,10,04,02,27,6.40
2008,10,04,02,28,14.50
2008,10,04,02,29,11.30
2008,10,04,02,30,17.70
2008,10,04,02,31,22.50
2008,10,04,02,32,11.30
2008,10,04,02,33,12.90
2008,10,04,02,34,6.40
2008,10,04,02,35,14.50
2008,10,04,02,36,16.10
2008,10,04,02,37,11.30
2008,10,04,02,38,6.40
2008,10,04,02,39,9.60
2008,10,04,02,40,8.10
2008,10,04,02,41,6.40
2008,10,04,02,42,4.80
2008,10,04,02,43,8.10
2008,10,04,02,44,6.40
2008,10,04,02,45,8.10
2008,10,04,02,46,6.40
2008,10,04,02,47,4.80
2008,10,04,02,48,4.80
2008,10,04,02,49,6.40
2008,10,04,02,50,8.10
2008,10,04,02,51,8.10
2008,10,04,02,52,9.60
2008,10,04,02,53,16.10
2008,10,04,02,54,14.50
2008,10,04,02,55,11.30
2008,10,04,02,56,9.60
2008,10,04,02,57,6.40
2008,10,04,02,58,8.10
2008,10,04,02,59,11.30
2008,10,04,03,00,9.60
2008,10,04,03,01,6.40
2008,10,04,03,02,16.10
2008,10,04,03,03,6.40
2008,10,04,03,04,8.10
2008,10,04,03,05,19.30
2008,10,04,03,06,9.60
2008,10,04,03,07,17.70
2008,10,04,03,08,17.70
2008,10,04,03,09,11.30
2008,10,04,03,10,8.10
2008,10,04,03,11,8.10
2008,10,04,03,12,11.30
2008,10,04,03,13,20.90
2008,10,04,03,14,14.50
2008,10,04,03,15,16.10
2008,10,04,03,16,14.50
2008,10,04,03,17,19.30
2008,10,04,03,18,25.70
2008,10,04,03,19,14.50
2008,10,04,03,20,8.10
2008,10,04,03,21,11.30
2008,10,04,03,22,14.50
2008,10,04,03,23,11.30
2008,10,04,03,24,9.60
2008,10,04,03,25,19.30
2008,10,04,03,26,9.60
2008,10,04,03,27,16.10
2008,10,04,03,28,9.60
2008,10,04,03,29,17.70
2008,10,04,03,30,9.60
2008,10,04,03,31,9.60
2008,10,04,03,32,12.90
2008,10,04,03,33,8.10
2008,10,04,03,34,6.40
2008,10,04,03,35,6.40
2008,10,04,03,36,6.40
2008,10,04,03,37,9.60
2008,10,04,03,38,12.90
2008,10,04,03,39,19.30
2008,10,04,03,40,8.10
2008,10,04,03,41,6.40
2008,10,04,03,42,8.10
2008,10,04,03,43,17.70
2008,10,04,03,44,16.10
2008,10,04,03,45,16.10
2008,10,04,03,46,14.50
2008,10,04,03,47,14.50
2008,10,04,03,48,9.60
2008,10,04,03,49,11.30
2008,10,04,03,50,8.10
2008,10,04,03,51,11.30
2008,10,04,03,52,8.10
2008,10,04,03,53,6.40
2008,10,04,03,54,6.40
2008,10,04,03,55,8.10
2008,10,04,03,56,8.10
2008,10,04,03,57,11.30
2008,10,04,03,58,9.60
2008,10,04,03,59,12.90
2008,10,04,04,00,9.60
2008,10,04,04,01,8.10
2008,10,04,04,02,8.10
2008,10,04,04,03,9.60
2008,10,04,04,04,4.80
2008,10,04,04,05,8.10
2008,10,04,04,06,6.40
2008,10,04,04,07,8.10
2008,10,04,04,08,14.50
2008,10,04,04,09,16.10
2008,10,04,04,10,14.50
2008,10,04,04,11,3.20
2008,10,04,04,12,6.40
2008,10,04,04,13,22.50
2008,10,04,04,14,16.10
2008,10,04,04,15,11.30
2008,10,04,04,16,11.30
2008,10,04,04,17,19.30
2008,10,04,04,18,14.50
2008,10,04,04,19,6.40
2008,10,04,04,20,6.40
2008,10,04,04,21,14.50
2008,10,04,04,22,11.30
2008,10,04,04,23,9.60
2008,10,04,04,24,6.40
2008,10,04,04,25,4.80
2008,10,04,04,26,3.20
2008,10,04,04,27,8.10
2008,10,04,04,28,8.10
2008,10,04,04,29,9.60
2008,10,04,04,30,16.10
2008,10,04,04,31,17.70
2008,10,04,04,32,11.30
2008,10,04,04,33,16.10
2008,10,04,04,34,8.10
2008,10,04,04,35,6.40
2008,10,04,04,36,3.20
2008,10,04,04,37,3.20
2008,10,04,04,38,6.40
2008,10,04,04,39,12.90
2008,10,04,04,40,16.10
2008,10,04,04,41,8.10
2008,10,04,04,42,4.80
2008,10,04,04,43,1.60
2008,10,04,04,44,3.20
2008,10,04,04,45,6.40
2008,10,04,04,46,4.80
2008,10,04,04,47,4.80
2008,10,04,04,48,3.20
2008,10,04,04,49,4.80
2008,10,04,04,50,6.40
2008,10,04,04,51,8.10
2008,10,04,04,52,6.40
2008,10,04,04,53,16.10
2008,10,04,04,54,8.10
2008,10,04,04,55,11.30
2008,10,04,04,56,22.50
2008,10,04,04,57,16.10
2008,10,04,04,58,16.10
2008,10,04,04,59,14.50
2008,10,04,05,00,8.10
2008,10,04,05,01,8.10
2008,10,04,05,02,4.80
2008,10,04,05,03,6.40
2008,10,04,05,04,17.70
2008,10,04,05,05,17.70
2008,10,04,05,06,12.90
2008,10,04,05,07,6.40
2008,10,04,05,08,14.50
2008,10,04,05,09,16.10
2008,10,04,05,10,11.30
2008,10,04,05,11,8.10
2008,10,04,05,12,12.90
2008,10,04,05,13,9.60
2008,10,04,05,14,4.80
2008,10,04,05,15,8.10
2008,10,04,05,16,8.10
2008,10,04,05,17,9.60
2008,10,04,05,18,11.30
2008,10,04,05,19,9.60
2008,10,04,05,20,12.90
2008,10,04,05,21,4.80
2008,10,04,05,22,16.10
2008,10,04,05,23,12.90
2008,10,04,05,24,14.50
2008,10,04,05,25,8.10
2008,10,04,05,26,8.10
2008,10,04,05,27,6.40
2008,10,04,05,28,11.30
2008,10,04,05,29,20.90
2008,10,04,05,30,14.50
2008,10,04,05,31,14.50
2008,10,04,05,32,11.30
2008,10,04,05,33,16.10
2008,10,04,05,34,24.20
2008,10,04,05,35,8.10
2008,10,04,05,36,19.30
2008,10,04,05,37,14.50
2008,10,04,05,38,19.30
2008,10,04,05,39,16.10
2008,10,04,05,40,11.30
2008,10,04,05,41,19.30
2008,10,04,05,42,8.10
2008,10,04,05,43,22.50
2008,10,04,05,44,11.30
2008,10,04,05,45,14.50
2008,10,04,05,46,20.90
2008,10,04,05,47,19.30
2008,10,04,05,48,16.10
2008,10,04,05,49,8.10
2008,10,04,05,50,16.10
2008,10,04,05,51,20.90
2008,10,04,05,52,9.60
2008,10,04,05,53,12.90
2008,10,04,05,54,17.70
2008,10,04,05,55,17.70
2008,10,04,05,56,16.10
2008,10,04,05,57,19.30
2008,10,04,05,58,17.70
2008,10,04,05,59,17.70
2008,10,04,06,00,20.90
2008,10,04,06,01,9.60
2008,10,04,06,02,11.30
2008,10,04,06,03,17.70
2008,10,04,06,04,8.10
2008,10,04,06,05,6.40
2008,10,04,06,06,6.40
2008,10,04,06,07,14.50
2008,10,04,06,08,16.10
2008,10,04,06,09,16.10
2008,10,04,06,10,20.90
2008,10,04,06,11,22.50
2008,10,04,06,12,11.30
2008,10,04,06,13,8.10
2008,10,04,06,14,14.50
2008,10,04,06,15,14.50
2008,10,04,06,16,19.30
2008,10,04,06,17,20.90
2008,10,04,06,18,19.30
2008,10,04,06,19,22.50
2008,10,04,06,20,16.10
2008,10,04,06,21,20.90
2008,10,04,06,22,20.90
2008,10,04,06,23,20.90
2008,10,04,06,24,29.00
2008,10,04,06,25,17.70
2008,10,04,06,26,22.50
2008,10,04,06,27,24.20
2008,10,04,06,28,19.30
2008,10,04,06,29,14.50
2008,10,04,06,30,19.30
2008,10,04,06,31,8.10
2008,10,04,06,32,8.10
2008,10,04,06,33,17.70
2008,10,04,06,34,8.10
2008,10,04,06,35,6.40
2008,10,04,06,36,9.60
2008,10,04,06,37,9.60
2008,10,04,06,38,11.30
2008,10,04,06,39,11.30
2008,10,04,06,40,6.40
2008,10,04,06,41,9.60
2008,10,04,06,42,4.80
2008,10,04,06,43,3.20
2008,10,04,06,44,9.60
2008,10,04,06,45,9.60
2008,10,04,06,46,12.90
2008,10,04,06,47,11.30
2008,10,04,06,48,9.60
2008,10,04,06,49,11.30
2008,10,04,06,50,9.60
2008,10,04,06,51,8.10
2008,10,04,06,52,8.10
2008,10,04,06,53,11.30
2008,10,04,06,54,8.10
2008,10,04,06,55,8.10
2008,10,04,06,56,8.10
2008,10,04,06,57,6.40
2008,10,04,06,58,8.10
2008,10,04,06,59,8.10
2008,10,04,07,00,8.10
2008,10,04,07,01,6.40
2008,10,04,07,02,9.60
2008,10,04,07,03,11.30
2008,10,04,07,04,8.10
2008,10,04,07,05,9.60
2008,10,04,07,06,9.60
2008,10,04,07,07,9.60
2008,10,04,07,08,9.60
2008,10,04,07,09,6.40
2008,10,04,07,10,11.30
2008,10,04,07,11,3.20
2008,10,04,07,12,4.80
2008,10,04,07,13,6.40
2008,10,04,07,14,6.40
2008,10,04,07,15,8.10
2008,10,04,07,16,9.60
2008,10,04,07,17,4.80
2008,10,04,07,18,4.80
2008,10,04,07,19,11.30
2008,10,04,07,20,8.10
2008,10,04,07,21,6.40
2008,10,04,07,22,6.40
2008,10,04,07,23,4.80
2008,10,04,07,24,6.40
2008,10,04,07,25,4.80
2008,10,04,07,26,4.80
2008,10,04,07,27,6.40
2008,10,04,07,28,16.10
2008,10,04,07,29,9.60
2008,10,04,07,30,8.10
2008,10,04,07,31,8.10
2008,10,04,07,32,14.50
2008,10,04,07,33,8.10
2008,10,04,07,34,8.10
2008,10,04,07,35,8.10
2008,10,04,07,36,8.10
2008,10,04,07,37,11.30
2008,10,04,07,38,9.60
2008,10,04,07,39,6.40
2008,10,04,07,40,9.60
2008,10,04,07,41,6.40
2008,10,04,07,42,8.10
2008,10,04,07,43,14.50
2008,10,04,07,44,8.10
2008,10,04,07,45,9.60
2008,10,04,07,46,9.60
2008,10,04,07,47,9.60
2008,10,04,07,48,11.30
2008,10,04,07,49,8.10
2008,10,04,07,50,4.80
2008,10,04,07,51,9.60
2008,10,04,07,52,11.30
2008,10,04,07,53,4.80
2008,10,04,07,54,11.30
2008,10,04,07,55,14.50
2008,10,04,07,56,8.10
2008,10,04,07,57,11.30
2008,10,04,07,58,12.90
2008,10,04,07,59,9.60
2008,10,04,08,00,11.30
2008,10,04,08,01,9.60
2008,10,04,08,02,9.60
2008,10,04,08,03,16.10
2008,10,04,08,04,9.60
2008,10,04,08,05,16.10
2008,10,04,08,06,16.10
2008,10,04,08,07,14.50
2008,10,04,08,08,9.60
2008,10,04,08,09,6.40
2008,10,04,08,10,11.30
2008,10,04,08,11,14.50
2008,10,04,08,12,9.60
2008,10,04,08,13,6.40
2008,10,04,08,14,11.30
2008,10,04,08,15,4.80
2008,10,04,08,16,6.40
2008,10,04,08,17,4.80
2008,10,04,08,18,4.80
2008,10,04,08,19,4.80
2008,10,04,08,20,4.80
2008,10,04,08,21,4.80
2008,10,04,08,22,6.40
2008,10,04,08,23,3.20
2008,10,04,08,24,3.20
2008,10,04,08,25,4.80
2008,10,04,08,26,6.40
2008,10,04,08,27,3.20
2008,10,04,08,28,4.80
2008,10,04,08,29,4.80
2008,10,04,08,30,4.80
2008,10,04,08,31,3.20
2008,10,04,08,32,3.20
2008,10,04,08,33,3.20
2008,10,04,08,34,4.80
2008,10,04,08,35,4.80
2008,10,04,08,36,9.60
2008,10,04,08,37,4.80
2008,10,04,08,38,3.20
2008,10,04,08,39,4.80
2008,10,04,08,40,4.80
2008,10,04,08,41,3.20
2008,10,04,08,42,4.80
2008,10,04,08,43,3.20
2008,10,04,08,44,4.80
2008,10,04,08,45,4.80
2008,10,04,08,46,6.40
2008,10,04,08,47,3.20
2008,10,04,08,48,1.60
2008,10,04,08,49,1.60
2008,10,04,08,50,1.60
2008,10,04,08,51,0.00
2008,10,04,08,52,1.60
2008,10,04,08,53,3.20
2008,10,04,08,54,4.80
2008,10,04,08,55,3.20
2008,10,04,08,56,4.80
2008,10,04,08,57,4.80
2008,10,04,08,58,4.80
2008,10,04,08,59,3.20
2008,10,04,09,00,8.10
2008,10,04,09,01,8.10
2008,10,04,09,02,8.10
2008,10,04,09,03,12.90
2008,10,04,09,04,8.10
2008,10,04,09,05,6.40
2008,10,04,09,06,6.40
2008,10,04,09,07,3.20
2008,10,04,09,08,3.20
2008,10,04,09,09,1.60
2008,10,04,09,10,3.20
2008,10,04,09,11,4.80
2008,10,04,09,12,4.80
2008,10,04,09,13,4.80
2008,10,04,09,14,11.30
2008,10,04,09,15,6.40
2008,10,04,09,16,16.10
2008,10,04,09,17,6.40
2008,10,04,09,18,6.40
2008,10,04,09,19,11.30
2008,10,04,09,20,14.50
2008,10,04,09,21,8.10
2008,10,04,09,22,12.90
2008,10,04,09,23,16.10
2008,10,04,09,24,9.60
2008,10,04,09,25,11.30
2008,10,04,09,26,6.40
2008,10,04,09,27,4.80
2008,10,04,09,28,11.30
2008,10,04,09,29,8.10
2008,10,04,09,30,12.90
2008,10,04,09,31,11.30
2008,10,04,09,32,14.50
2008,10,04,09,33,9.60
2008,10,04,09,34,8.10
2008,10,04,09,35,9.60
2008,10,04,09,36,8.10
2008,10,04,09,37,11.30
2008,10,04,09,38,3.20
2008,10,04,09,39,4.80
2008,10,04,09,40,6.40
2008,10,04,09,41,9.60
2008,10,04,09,42,6.40
2008,10,04,09,43,4.80
2008,10,04,09,44,3.20
2008,10,04,09,45,3.20
2008,10,04,09,46,4.80
2008,10,04,09,47,3.20
2008,10,04,09,48,4.80
2008,10,04,09,49,4.80
2008,10,04,09,50,4.80
2008,10,04,09,51,3.20
2008,10,04,09,52,9.60
2008,10,04,09,53,6.40
2008,10,04,09,54,6.40
2008,10,04,09,55,6.40
2008,10,04,09,56,9.60
2008,10,04,09,57,8.10
2008,10,04,09,58,6.40
2008,10,04,09,59,6.40
2008,10,04,10,00,9.60
2008,10,04,10,01,8.10
2008,10,04,10,02,9.60
2008,10,04,10,03,9.60
2008,10,04,10,04,9.60
2008,10,04,10,05,14.50
2008,10,04,10,06,11.30
2008,10,04,10,07,14.50
2008,10,04,10,08,12.90
2008,10,04,10,09,8.10
2008,10,04,10,10,8.10
2008,10,04,10,11,11.30
2008,10,04,10,12,8.10
2008,10,04,10,13,6.40
2008,10,04,10,14,9.60
2008,10,04,10,15,11.30
2008,10,04,10,16,6.40
2008,10,04,10,17,9.60
2008,10,04,10,18,6.40
2008,10,04,10,19,4.80
2008,10,04,10,20,4.80
2008,10,04,10,21,4.80
2008,10,04,10,22,9.60
2008,10,04,10,23,11.30
2008,10,04,10,24,6.40
2008,10,04,10,25,8.10
2008,10,04,10,26,9.60
2008,10,04,10,27,9.60
2008,10,04,10,28,9.60
2008,10,04,10,29,11.30
2008,10,04,10,30,9.60
2008,10,04,10,31,8.10
2008,10,04,10,32,8.10
2008,10,04,10,33,9.60
2008,10,04,10,34,9.60
2008,10,04,10,35,9.60
2008,10,04,10,36,12.90
2008,10,04,10,37,8.10
2008,10,04,10,38,11.30
2008,10,04,10,39,9.60
2008,10,04,10,40,6.40
2008,10,04,10,41,11.30
2008,10,04,10,42,4.80
2008,10,04,10,43,14.50
2008,10,04,10,44,16.10
2008,10,04,10,45,8.10
2008,10,04,10,46,9.60
2008,10,04,10,47,11.30
2008,10,04,10,48,6.40
2008,10,04,10,49,8.10
2008,10,04,10,50,8.10
2008,10,04,10,51,12.90
2008,10,04,10,52,16.10
2008,10,04,10,53,8.10
2008,10,04,10,54,16.10
2008,10,04,10,55,14.50
2008,10,04,10,56,11.30
2008,10,04,10,57,11.30
2008,10,04,10,58,8.10
2008,10,04,10,59,8.10
2008,10,04,11,00,11.30
2008,10,04,11,01,8.10
2008,10,04,11,02,8.10
2008,10,04,11,03,9.60
2008,10,04,11,04,9.60
2008,10,04,11,05,14.50
2008,10,04,11,06,9.60
2008,10,04,11,07,14.50
2008,10,04,11,08,11.30
2008,10,04,11,09,17.70
2008,10,04,11,10,11.30
2008,10,04,11,11,8.10
2008,10,04,11,12,9.60
2008,10,04,11,13,6.40
2008,10,04,11,14,8.10
2008,10,04,11,15,9.60
2008,10,04,11,16,8.10
2008,10,04,11,17,9.60
2008,10,04,11,18,16.10
2008,10,04,11,19,11.30
2008,10,04,11,20,9.60
2008,10,04,11,21,9.60
2008,10,04,11,22,11.30
2008,10,04,11,23,16.10
2008,10,04,11,24,9.60
2008,10,04,11,25,11.30
2008,10,04,11,26,16.10
2008,10,04,11,27,14.50
2008,10,04,11,28,8.10
2008,10,04,11,29,11.30
2008,10,04,11,30,11.30
2008,10,04,11,31,9.60
2008,10,04,11,32,8.10
2008,10,04,11,33,9.60
2008,10,04,11,34,11.30
2008,10,04,11,35,6.40
2008,10,04,11,36,6.40
2008,10,04,11,37,9.60
2008,10,04,11,38,9.60
2008,10,04,11,39,4.80
2008,10,04,11,40,4.80
2008,10,04,11,41,4.80
2008,10,04,11,42,8.10
2008,10,04,11,43,9.60
2008,10,04,11,44,8.10
2008,10,04,11,45,9.60
2008,10,04,11,46,6.40
2008,10,04,11,47,8.10
2008,10,04,11,48,6.40
2008,10,04,11,49,6.40
2008,10,04,11,50,9.60
2008,10,04,11,51,9.60
2008,10,04,11,52,8.10
2008,10,04,11,53,9.60
2008,10,04,11,54,8.10
2008,10,04,11,55,9.60
2008,10,04,11,56,12.90
2008,10,04,11,57,9.60
2008,10,04,11,58,16.10
2008,10,04,11,59,17.70
2008,10,04,12,00,14.50
2008,10,04,12,01,11.30
2008,10,04,12,02,16.10
2008,10,04,12,03,19.30
2008,10,04,12,04,11.30
2008,10,04,12,05,14.50
2008,10,04,12,06,19.30
2008,10,04,12,07,14.50
2008,10,04,12,08,16.10
2008,10,04,12,09,17.70
2008,10,04,12,10,16.10
2008,10,04,12,11,11.30
2008,10,04,12,12,9.60
2008,10,04,12,13,11.30
2008,10,04,12,14,9.60
2008,10,04,12,15,12.90
2008,10,04,12,16,11.30
2008,10,04,12,17,8.10
2008,10,04,12,18,9.60
2008,10,04,12,19,9.60
2008,10,04,12,20,12.90
2008,10,04,12,21,8.10
2008,10,04,12,22,12.90
2008,10,04,12,23,11.30
2008,10,04,12,24,9.60
2008,10,04,12,25,11.30
2008,10,04,12,26,9.60
2008,10,04,12,27,9.60
2008,10,04,12,28,8.10
2008,10,04,12,29,11.30
2008,10,04,12,30,6.40
2008,10,04,12,31,6.40
2008,10,04,12,32,8.10
2008,10,04,12,33,4.80
2008,10,04,12,34,8.10
2008,10,04,12,35,4.80
2008,10,04,12,36,8.10
2008,10,04,12,37,4.80
2008,10,04,12,38,6.40
2008,10,04,12,39,6.40
2008,10,04,12,40,6.40
2008,10,04,12,41,4.80
2008,10,04,12,42,4.80
2008,10,04,12,43,6.40
2008,10,04,12,44,8.10
2008,10,04,12,45,11.30
2008,10,04,12,46,6.40
2008,10,04,12,47,6.40
2008,10,04,12,48,9.60
2008,10,04,12,49,6.40
2008,10,04,12,50,9.60
2008,10,04,12,51,8.10
2008,10,04,12,52,9.60
2008,10,04,12,53,8.10
2008,10,04,12,54,11.30
2008,10,04,12,55,11.30
2008,10,04,12,56,6.40
2008,10,04,12,57,11.30
2008,10,04,12,58,8.10
2008,10,04,12,59,12.90
2008,10,04,13,00,14.50
2008,10,04,13,01,11.30
2008,10,04,13,02,8.10
2008,10,04,13,03,8.10
2008,10,04,13,04,6.40
2008,10,04,13,05,4.80
2008,10,04,13,06,8.10
2008,10,04,13,07,16.10
2008,10,04,13,08,11.30
2008,10,04,13,09,11.30
2008,10,04,13,10,9.60
2008,10,04,13,11,6.40
2008,10,04,13,12,6.40
2008,10,04,13,13,3.20
2008,10,04,13,14,4.80
2008,10,04,13,15,8.10
2008,10,04,13,16,6.40
2008,10,04,13,17,8.10
2008,10,04,13,18,8.10
2008,10,04,13,19,4.80
2008,10,04,13,20,3.20
2008,10,04,13,21,1.60
2008,10,04,13,22,3.20
2008,10,04,13,23,4.80
2008,10,04,13,24,1.60
2008,10,04,13,25,1.60
2008,10,04,13,26,0.00
2008,10,04,13,27,0.00
2008,10,04,13,28,3.20
2008,10,04,13,29,1.60
2008,10,04,13,30,0.00
2008,10,04,13,31,1.60
2008,10,04,13,32,1.60
2008,10,04,13,33,6.40
2008,10,04,13,34,4.80
2008,10,04,13,35,4.80
2008,10,04,13,36,1.60
2008,10,04,13,37,1.60
2008,10,04,13,38,4.80
2008,10,04,13,39,3.20
2008,10,04,13,40,1.60
2008,10,04,13,41,1.60
2008,10,04,13,42,0.00
2008,10,04,13,43,0.00
2008,10,04,13,44,0.00
2008,10,04,13,45,0.00
2008,10,04,13,46,0.00
2008,10,04,13,47,1.60
2008,10,04,13,48,4.80
2008,10,04,13,49,6.40
2008,10,04,13,50,9.60
2008,10,04,13,51,11.30
2008,10,04,13,52,9.60
2008,10,04,13,53,6.40
2008,10,04,13,54,3.20
2008,10,04,13,55,0.00
2008,10,04,13,56,0.00
2008,10,04,13,57,0.00
2008,10,04,13,58,0.00
2008,10,04,13,59,0.00
2008,10,04,14,00,0.00
2008,10,04,14,01,0.00
2008,10,04,14,02,0.00
2008,10,04,14,03,0.00
2008,10,04,14,04,0.00
2008,10,04,14,05,0.00
2008,10,04,14,06,1.60
2008,10,04,14,07,3.20
2008,10,04,14,08,1.60
2008,10,04,14,09,3.20
2008,10,04,14,10,3.20
2008,10,04,14,11,1.60
2008,10,04,14,12,1.60
2008,10,04,14,13,0.00
2008,10,04,14,14,0.00
2008,10,04,14,15,0.00
2008,10,04,14,16,0.00
2008,10,04,14,17,0.00
2008,10,04,14,18,0.00
2008,10,04,14,19,3.20
2008,10,04,14,20,0.00
2008,10,04,14,21,0.00
2008,10,04,14,22,3.20
2008,10,04,14,23,0.00
2008,10,04,14,24,1.60
2008,10,04,14,25,4.80
2008,10,04,14,26,4.80
2008,10,04,14,27,6.40
2008,10,04,14,28,4.80
2008,10,04,14,29,6.40
2008,10,04,14,30,6.40
2008,10,04,14,31,4.80
2008,10,04,14,32,9.60
2008,10,04,14,33,6.40
2008,10,04,14,34,4.80
2008,10,04,14,35,4.80
2008,10,04,14,36,6.40
2008,10,04,14,37,4.80
2008,10,04,14,38,8.10
2008,10,04,14,39,14.50
2008,10,04,14,40,8.10
2008,10,04,14,41,8.10
2008,10,04,14,42,16.10
2008,10,04,14,43,17.70
2008,10,04,14,44,20.90
2008,10,04,14,45,24.20
2008,10,04,14,46,19.30
2008,10,04,14,47,24.20
2008,10,04,14,48,20.90
2008,10,04,14,49,17.70
2008,10,04,14,50,24.20
2008,10,04,14,51,29.00
2008,10,04,14,52,25.70
2008,10,04,14,53,24.20
2008,10,04,14,54,25.70
2008,10,04,14,55,29.00
2008,10,04,14,56,22.50
2008,10,04,14,57,25.70
2008,10,04,14,58,27.40
2008,10,04,14,59,30.60
2008,10,04,15,00,22.50
2008,10,04,15,01,35.40
2008,10,04,15,02,27.40
2008,10,04,15,03,33.80
2008,10,04,15,04,24.20
2008,10,04,15,05,30.60
2008,10,04,15,06,32.20
2008,10,04,15,07,27.40
2008,10,04,15,08,29.00
2008,10,04,15,09,37.00
2008,10,04,15,10,29.00
2008,10,04,15,11,33.80
2008,10,04,15,12,40.20
2008,10,04,15,13,27.40
2008,10,04,15,14,41.80
2008,10,04,15,15,38.60
2008,10,04,15,16,35.40
2008,10,04,15,17,32.20
2008,10,04,15,18,40.20
2008,10,04,15,19,46.70
2008,10,04,15,20,33.80
2008,10,04,15,21,37.00
2008,10,04,15,22,41.80
2008,10,04,15,23,37.00
2008,10,04,15,24,27.40
2008,10,04,15,25,38.60
2008,10,04,15,26,41.80
2008,10,04,15,27,38.60
2008,10,04,15,28,51.50
2008,10,04,15,29,38.60
2008,10,04,15,30,29.00
2008,10,04,15,31,30.60
2008,10,04,15,32,33.80
2008,10,04,15,33,38.60
2008,10,04,15,34,40.20
2008,10,04,15,35,38.60
2008,10,04,15,36,25.70
2008,10,04,15,37,43.50
2008,10,04,15,38,40.20
2008,10,04,15,39,30.60
2008,10,04,15,40,40.20
2008,10,04,15,41,48.30
2008,10,04,15,42,40.20
2008,10,04,15,43,32.20
2008,10,04,15,44,29.00
2008,10,04,15,45,40.20
2008,10,04,15,46,41.80
2008,10,04,15,47,43.50
2008,10,04,15,48,45.10
2008,10,04,15,49,40.20
2008,10,04,15,50,43.50
2008,10,04,15,51,46.70
2008,10,04,15,52,46.70
2008,10,04,15,53,46.70
2008,10,04,15,54,40.20
2008,10,04,15,55,48.30
2008,10,04,15,56,69.20
2008,10,04,15,57,51.50
2008,10,04,15,58,43.50
2008,10,04,15,59,53.10
2008,10,04,16,00,48.30
2008,10,04,16,01,49.90
2008,10,04,16,02,45.10
2008,10,04,16,03,45.10
2008,10,04,16,04,40.20
2008,10,04,16,05,38.60
2008,10,04,16,06,30.60
2008,10,04,16,07,49.90
2008,10,04,16,08,48.30
2008,10,04,16,09,49.90
2008,10,04,16,10,53.10
2008,10,04,16,11,40.20
2008,10,04,16,12,46.70
2008,10,04,16,13,53.10
2008,10,04,16,14,40.20
2008,10,04,16,15,43.50
2008,10,04,16,16,43.50
2008,10,04,16,17,32.20
2008,10,04,16,18,45.10
2008,10,04,16,19,43.50
2008,10,04,16,20,49.90
2008,10,04,16,21,51.50
2008,10,04,16,22,49.90
2008,10,04,16,23,40.20
2008,10,04,16,24,54.70
2008,10,04,16,25,38.60
2008,10,04,16,26,57.90
2008,10,04,16,27,53.10
2008,10,04,16,28,37.00
2008,10,04,16,29,48.30
2008,10,04,16,30,48.30
2008,10,04,16,31,46.70
2008,10,04,16,32,41.80
2008,10,04,16,33,32.20
2008,10,04,16,34,32.20
2008,10,04,16,35,53.10
2008,10,04,16,36,38.60
2008,10,04,16,37,45.10
2008,10,04,16,38,37.00
2008,10,04,16,39,48.30
2008,10,04,16,40,41.80
2008,10,04,16,41,33.80
2008,10,04,16,42,32.20
2008,10,04,16,43,49.90
2008,10,04,16,44,45.10
2008,10,04,16,45,27.40
2008,10,04,16,46,29.00
2008,10,04,16,47,30.60
2008,10,04,16,48,27.40
2008,10,04,16,49,45.10
2008,10,04,16,50,22.50
2008,10,04,16,51,43.50
2008,10,04,16,52,37.00
2008,10,04,16,53,37.00
2008,10,04,16,54,29.00
2008,10,04,16,55,46.70
2008,10,04,16,56,48.30
2008,10,04,16,57,35.40
2008,10,04,16,58,30.60
2008,10,04,16,59,32.20
2008,10,04,17,00,45.10
2008,10,04,17,01,35.40
2008,10,04,17,02,45.10
2008,10,04,17,03,40.20
2008,10,04,17,04,35.40
2008,10,04,17,05,43.50
2008,10,04,17,06,38.60
2008,10,04,17,07,37.00
2008,10,04,17,08,32.20
2008,10,04,17,09,40.20
2008,10,04,17,10,56.30
2008,10,04,17,11,46.70
2008,10,04,17,12,45.10
2008,10,04,17,13,54.70
2008,10,04,17,14,41.80
2008,10,04,17,15,43.50
2008,10,04,17,16,46.70
2008,10,04,17,17,33.80
2008,10,04,17,18,37.00
2008,10,04,17,19,57.90
2008,10,04,17,20,33.80
2008,10,04,17,21,45.10
2008,10,04,17,22,33.80
2008,10,04,17,23,33.80
2008,10,04,17,24,43.50
2008,10,04,17,25,35.40
2008,10,04,17,26,45.10
2008,10,04,17,27,41.80
2008,10,04,17,28,35.40
2008,10,04,17,29,27.40
2008,10,04,17,30,33.80
2008,10,04,17,31,33.80
2008,10,04,17,32,27.40
2008,10,04,17,33,33.80
2008,10,04,17,34,32.20
2008,10,04,17,35,27.40
2008,10,04,17,36,45.10
2008,10,04,17,37,45.10
2008,10,04,17,38,37.00
2008,10,04,17,39,27.40
2008,10,04,17,40,19.30
2008,10,04,17,41,37.00
2008,10,04,17,42,41.80
2008,10,04,17,43,43.50
2008,10,04,17,44,43.50
2008,10,04,17,45,35.40